Location: Nitra
(0.0000°N, 18.0833°E)
Time: 03:52:27
(UTC+01:00)

Cosmos 2369 - Pass Details

Date: 25 September 2022
Orbit: 840 x 854 km, 71.0° (Epoch: 01 December)

Event Time Altitude Azimuth Distance (km) Brightness Sun altitude
Rises 18:58:01 0° 189° (S) 3,417 7.0 -4.7°
Reaches altitude 10° 19:00:30 10° 185° (S) 2,481 6.2 -5.3°
Maximum altitude 19:06:08 62° 105° (ESE) 958 3.8 -6.7°
Drops below altitude 10° 19:11:44 10° 25° (NNE) 2,473 5.9 -8.1°
Sets 19:14:12 0° 22° (NNE) 3,406 6.6 -8.7°
